Time,TemperatureF,DewpointF,PressureIn,WindDirection,WindDirectionDegrees,WindSpeedMPH,WindSpeedGustMPH,Humidity,HourlyPrecipIn,Conditions,Clouds,dailyrainin,SoftwareType,DateUTC
2014-11-27 00:03:00,30.9,26.0,30.08,NNW,345,0.0,3.0,83,0.00,,,0.00,weatherlink.com 1.10,2014-11-27 05:03:00,
2014-11-27 00:18:00,30.8,26.0,30.08,NNE,20,0.0,2.0,83,0.00,,,0.00,weatherlink.com 1.10,2014-11-27 05:18:00,
2014-11-27 00:33:00,30.7,26.0,30.08,North,5,0.0,1.0,83,0.00,,,0.00,weatherlink.com 1.10,2014-11-27 05:33:00,
2014-11-27 00:48:00,30.5,26.0,30.08,North,355,1.0,3.0,83,0.00,,,0.00,weatherlink.com 1.10,2014-11-27 05:48:00,
2014-11-27 01:03:00,30.4,26.0,30.08,North,351,1.0,3.0,83,0.00,,,0.00,weatherlink.com 1.10,2014-11-27 06:03:00,
2014-11-27 01:18:00,30.2,26.0,30.08,North,9,1.0,4.0,83,0.00,,,0.00,weatherlink.com 1.10,2014-11-27 06:18:00,
2014-11-27 01:33:00,30.1,26.0,30.08,North,355,1.0,5.0,83,0.00,,,0.00,weatherlink.com 1.10,2014-11-27 06:33:00,
2014-11-27 01:48:00,30.0,25.0,30.08,NNW,344,2.0,4.0,83,0.00,,,0.00,weatherlink.com 1.10,2014-11-27 06:48:00,
2014-11-27 02:03:00,30.0,25.0,30.08,North,9,3.0,5.0,83,0.00,,,0.00,weatherlink.com 1.10,2014-11-27 07:03:00,
2014-11-27 02:18:00,29.9,25.0,30.09,NNE,22,1.0,5.0,83,0.00,,,0.00,weatherlink.com 1.10,2014-11-27 07:18:00,
2014-11-27 02:33:00,29.9,25.0,30.09,North,355,1.0,7.0,83,0.00,,,0.00,weatherlink.com 1.10,2014-11-27 07:33:00,
2014-11-27 02:48:00,29.8,25.0,30.10,NNW,338,1.0,6.0,83,0.00,,,0.00,weatherlink.com 1.10,2014-11-27 07:48:00,
2014-11-27 03:04:00,29.7,25.0,30.11,NNW,346,3.0,6.0,83,0.00,,,0.00,weatherlink.com 1.10,2014-11-27 08:04:00,
2014-11-27 03:18:00,29.6,25.0,30.11,North,350,0.0,6.0,83,0.00,,,0.00,weatherlink.com 1.10,2014-11-27 08:18:00,
2014-11-27 03:33:00,29.7,25.0,30.12,North,360,4.0,6.0,83,0.00,,,0.00,weatherlink.com 1.10,2014-11-27 08:33:00,
2014-11-27 03:48:00,29.7,25.0,30.12,North,355,1.0,5.0,83,0.00,,,0.00,weatherlink.com 1.10,2014-11-27 08:48:00,
2014-11-27 04:03:00,29.7,25.0,30.13,North,360,0.0,4.0,83,0.00,,,0.00,weatherlink.com 1.10,2014-11-27 09:03:00,
2014-11-27 04:18:00,29.8,25.0,30.13,North,355,0.0,6.0,83,0.00,,,0.00,weatherlink.com 1.10,2014-11-27 09:18:00,
2014-11-27 04:33:00,29.9,25.0,30.14,North,9,0.0,6.0,83,0.00,,,0.00,weatherlink.com 1.10,2014-11-27 09:33:00,
2014-11-27 04:48:00,29.9,25.0,30.14,WSW,257,5.0,8.0,83,0.00,,,0.00,weatherlink.com 1.10,2014-11-27 09:48:00,
2014-11-27 05:03:00,29.9,25.0,30.15,South,180,0.0,6.0,83,0.00,,,0.00,weatherlink.com 1.10,2014-11-27 10:03:00,
2014-11-27 05:18:00,30.0,25.0,30.16,WSW,252,2.0,5.0,83,0.00,,,0.00,weatherlink.com 1.10,2014-11-27 10:18:00,
2014-11-27 05:33:00,30.0,25.0,30.16,NW,304,0.0,4.0,83,0.00,,,0.00,weatherlink.com 1.10,2014-11-27 10:33:00,
2014-11-27 05:48:00,30.1,26.0,30.16,NNW,341,1.0,5.0,83,0.00,,,0.00,weatherlink.com 1.10,2014-11-27 10:48:00,
2014-11-27 06:03:00,30.1,26.0,30.17,NNW,341,1.0,5.0,83,0.00,,,0.00,weatherlink.com 1.10,2014-11-27 11:03:00,
2014-11-27 06:18:00,30.1,26.0,30.17,SW,227,2.0,7.0,83,0.00,,,0.00,weatherlink.com 1.10,2014-11-27 11:18:00,
2014-11-27 06:33:00,30.2,26.0,30.18,North,349,1.0,3.0,84,0.00,,,0.00,weatherlink.com 1.10,2014-11-27 11:33:00,
2014-11-27 06:48:00,30.3,26.0,30.19,North,5,1.0,5.0,83,0.00,,,0.00,weatherlink.com 1.10,2014-11-27 11:48:00,